Weather Roundup
Issued by NWS

Home | Current Version | Previous Version | Text Only | Print | Product List | Glossary On
Versions: 1 2 3 4 5 6 7 8 9 10 11 12 13 14 15 16 17 18 19 20 21 22 23 24 25 26 27 28 29 30 31 32 33 34 35 36 37 38 39 40 41 42 43 44 45 46 47 48 49 50
257
NZUS93 KARX 282059
HRRWXR

CURRENT HOURLY OBSERVATIONS ACROSS
MUCH OF THE UPPER MISSISSIPPI VALLEY
NATIONAL WEATHER SERVICE LA CROSSE WI
400 PM CDT WED JUN 28 2017


...SOUTHEAST MINNESOTA...


CITY           SKY/WX    TMP DP  RH WIND       PRES   REMARKS
ROCHESTER      CLOUDY    76  68  76 SW20G30   29.61F
ROCHESTER/MAYO FAIR      75  67  76 SW18G31   29.60F
WINONA         CLOUDY    73  64  73 SW9       29.61S
AUSTIN         CLOUDY    77  66  69 SW10      29.60F
ALBERT LEA     CLOUDY    79  66  65 SW14G20   29.61F
DODGE CENTER   MOSUNNY   75  66  73 S21G29    29.59F
PRESTON        PTSUNNY   70  64  82 SW13      29.62F
OWATONNA       MOSUNNY   81  70  69 S23G32    29.57F
FARIBAULT      MOSUNNY   82  66  57 SW22G28   29.55S
$$

...ELSEWHERE IN MINNESOTA...


CITY           SKY/WX    TMP DP  RH WIND       PRES   REMARKS
MINNEAPOLIS    PTSUNNY   82  64  54 W20G29    29.50F
INTNL FALLS    LGT RAIN  63  59  87 E8        29.58F
DULUTH         LGT RAIN  56  56 100 E10       29.57F
RED WING       MOSUNNY   79  66  65 S10       29.51F
REDWOOD FALLS  SUNNY     84  62  47 W20       29.54S
MANKATO        MOSUNNY   83  66  56 W21G26    29.56S
WORTHINGTON    MOSUNNY   81  66  60 W15       29.63R
FAIRMONT       PTSUNNY   83  67  58 W15G22    29.60S
$$

...SOUTHWEST WISCONSIN...


CITY           SKY/WX    TMP DP  RH WIND       PRES   REMARKS
LA CROSSE      LGT RAIN  74  69  85 S17       29.60F
PRAIRIE DU CHI CLOUDY    73  67  82 SE7       29.68F
BOSCOBEL       LGT RAIN  74  68  81 MISG      29.68F
LONE ROCK      NOT AVBL
PLATTEVILLE    PTSUNNY   74  71  92 S12G20    29.77S
FORT MC COY    DRIZZLE   68  66  93 S9G16     29.66F
CAMP DOUGLAS   CLOUDY    66  66 100 SE10      29.68F
MAUSTON-NEW LI LGT RAIN  66  65  96 S10       29.71F
VIROQUA        CLOUDY    67  67 100 S16G22    29.69F
WIS DELLS      DRIZZLE   66  64  93 S9        29.76S
$$

...ELSEWHERE IN WISCONSIN...


CITY           SKY/WX    TMP DP  RH WIND       PRES   REMARKS
MILWAUKEE      CLOUDY    74  64  71 S14G28    29.80F
MADISON        CLOUDY    71  65  81 S16G25    29.76R
GREEN BAY      CLOUDY    67  66  97 S12G20    29.75F
EAU CLAIRE     NOT AVBL
BLACK RVR FLS  CLOUDY    70  69  96 S6        29.64F
MEDFORD        CLOUDY    65  63  91 S13       29.66F
WAUSAU         CLOUDY    67  65  93 S9        29.68F
WIS RAPIDS     CLOUDY    67  65  93 S12G20    29.71F
MARSHFIELD     CLOUDY    67  63  87 S17G28    29.67F
RICE LAKE      CLOUDY    70  65  85 SE15G21   29.59F
$$

...NORTHEAST IOWA...


CITY           SKY/WX    TMP DP  RH WIND       PRES   REMARKS
WATERLOO       CLOUDY    80  68  66 S26G35    29.61F
DUBUQUE        MOSUNNY   79  70  74 S21G26    29.73F
DECORAH        CLOUDY    70  66  88 S10G21    29.62F
MASON CITY     CLOUDY    79  71  76 SW13      29.63F
CHARLES CITY   CLOUDY    66  66 100 SW18G28   29.65F FOG
OELWEIN        CLOUDY    81  72  74 S21G28    29.65F
$$

...ELSEWHERE IN IOWA...


CITY           SKY/WX    TMP DP  RH WIND       PRES   REMARKS
DES MOINES     PTSUNNY   84  70  62 S18G26    29.68F
IOWA CITY      MOSUNNY   86  70  58 S20G30    29.73F HX  90
FORT DODGE     CLOUDY    72  64  78 SW7       29.66S THUNDER
MARSHALLTOWN   PTSUNNY   83  70  64 S24G35    29.65F
CEDAR RAPIDS   CLOUDY    80  71  74 SW16G24   29.71F
$$

...NORTHERN ILLINOIS...


CITY           SKY/WX    TMP DP  RH WIND       PRES   REMARKS
CHICAGO-OHARE  CLOUDY    79  61  53 S20       29.83F
CHICAGO-MIDWAY CLOUDY    81  60  48 S21G26    29.83F
MOLINE         CLOUDY    81  69  67 S9G23     29.76F
ROCKFORD       CLOUDY    77  70  79 S20       29.80F
PEORIA         SUNNY     85  64  49 S23G31    29.83F
$$

NOTE: "FAIR" INDICATES FEW OR NO CLOUDS BELOW 12,000 FEET WITH NO
SIGNIFICANT WEATHER AND/OR OBSTRUCTIONS TO VISIBILITY. WIND
SPEEDS ARE IN MILES-PER-HOUR.




USA.gov is the U.S. government's official web portal to all federal, state and local government web resources and services.